[[{"header":{"parameterUnit":"m.s-1","parameterCategory":1,"la1":30.2991,"la2":30.254,"lo1":-89.0895,"lo2":-89.0444,"dy":0.0017,"dx":0.0017,"nx":28,"ny":28,"refTime":"2023-07-19T03:00:00:Z","depth":0,"parameterNumber":2,"parameterNumberName":"U-component_of_WINDS"},"data":[0,0,0,0,0,0,0,0,0,0,0,0,0,0,0,0,0,0,0,0,0,0,0,0,0,0,0,0,0,0,0,0,0,0,0,0,0,0,0,0,0,0,0,0,0,0,0,0,0,0,0,0,0,0,0,0,0,0,2.614,2.614,0,2.6165,2.6165,2.6166,2.616,2.6159,2.6159,2.6158,2.6184,2.6185,2.6187,0,0,0,0,0,0,0,0,0,0,0,0,0,2.6088,2.6089,2.614,2.614,2.6141,2.6165,2.6165,2.6166,2.616,2.6159,2.6159,2.6158,2.6184,2.6185,2.6187,0,0,0,0,0,0,0,0,0,0,0,0,0,2.6111,2.6089,2.614,2.6141,2.6141,2.6165,2.6165,2.6166,2.616,2.6159,2.6159,2.6158,2.6183,2.6185,2.6187,2.6212,0,0,2.6192,2.6193,0,0,0,0,0,0,0,0,2.611,2.6113,2.614,2.6141,2.6141,2.6159,2.6156,2.6181,2.616,2.6153,2.6158,2.6157,2.6176,2.6179,2.6185,2.6213,2.6214,2.6192,2.6193,2.6194,2.6194,0,0,0,0,0,0,0,2.6108,2.6112,2.615,2.6141,2.6141,2.614,2.6142,2.6161,2.6168,2.6153,2.6153,2.6156,2.6176,2.6183,2.6185,2.6214,2.6192,2.6194,2.6195,2.6195,2.6265,2.6266,0,0,0,0,0,0,2.6106,2.6111,2.6149,2.6151,2.6123,2.6141,2.6144,2.6154,2.6168,2.617,2.6157,2.6156,2.6181,2.6183,2.6186,2.6217,2.6194,2.6196,2.6197,2.6264,2.6265,2.6266,0,0,0,0,0,0,2.6105,2.611,2.6148,2.6131,2.6135,2.6143,2.6154,2.6155,2.6161,2.6171,2.6172,2.6162,2.618,2.6184,2.6206,2.6218,2.6196,2.6198,2.6263,2.6265,2.6266,2.6279,0,0,0,0,0,0,2.6104,2.6109,2.6119,2.6131,2.6136,2.6167,2.6154,2.6156,2.6164,2.6163,2.6176,2.6178,2.618,2.6203,2.6207,2.622,2.6199,2.6262,2.6264,2.6265,2.6277,2.628,2.6283,0,0,0,0,0,2.6102,2.6121,2.6119,2.6124,2.6148,2.6168,2.6171,2.6173,2.6165,2.6175,2.6181,2.6177,2.6216,2.6205,2.621,2.6223,2.6261,2.6263,2.6265,2.6276,2.628,2.6283,0,0,0,0,0,0,2.6111,2.6123,2.6121,2.6145,2.6155,2.6167,2.6179,2.6177,2.619,2.6188,2.619,2.6193,2.6216,2.6221,2.621,2.6249,2.6238,2.624,2.6244,2.6248,2.6251,2.6249,2.6201,0,0,0,0,0,2.6115,2.613,2.614,2.616,2.6166,2.6171,2.618,2.6181,2.6192,2.6196,2.6203,2.6214,2.6229,2.6238,2.6252,2.6278,2.6281,2.6289,2.6292,2.6294,2.6297,2.6312,2.6316,2.6272,2.6272,2.6272,0,0,2.6126,2.6134,2.6143,2.6162,2.617,2.6186,2.6175,2.6192,2.6203,2.6198,2.622,2.6225,2.6238,2.6262,2.6273,2.6267,2.631,2.6297,2.6298,2.63,2.6314,2.6318,2.6322,2.6274,2.6273,2.6273,0,0,2.6152,2.6159,2.6177,2.6186,2.6198,2.6202,2.6206,2.6218,2.6222,2.6243,2.624,2.6254,2.6279,2.6288,2.6296,2.6325,2.6323,2.633,2.6345,2.6359,2.6363,2.6366,2.6377,2.6381,2.6332,2.6332,2.6332,0,2.6163,2.6186,2.6187,2.6204,2.6213,2.6209,2.6228,2.6236,2.6252,2.6259,2.6252,2.6284,2.6292,2.6318,2.6325,2.6331,2.6337,2.6329,2.6362,2.6365,2.6368,2.6379,2.6383,2.6333,2.6333,2.6333,2.6333,0,2.6199,2.6215,2.6228,2.6244,2.6254,2.6272,2.6276,2.6286,2.6286,2.6291,2.6313,2.6322,2.6338,2.6344,2.6344,2.6371,2.6367,2.6361,2.635,2.6373,2.6383,2.6388,2.6334,2.6334,2.6334,2.6334,0,0,2.6232,2.6249,2.6254,2.6261,2.6275,2.6287,2.6305,2.632,2.633,2.6341,2.6356,2.6377,2.6372,2.6381,2.6382,2.6394,2.6418,2.6387,2.6387,2.6393,2.6449,2.6454,2.6459,2.6416,2.6417,2.6418,2.6449,0,2.6261,2.6292,2.6294,2.6322,2.6337,2.6334,2.6349,2.6359,2.6364,2.6377,2.6382,2.6398,2.6389,2.6395,2.6407,2.6413,2.643,2.6411,2.6431,2.6432,2.6429,2.6465,2.647,2.6499,2.6453,2.6453,2.6454,0,2.6298,2.6311,2.6341,2.6352,2.6359,2.6373,2.6388,2.64,2.6412,2.6414,2.6424,2.6423,2.6442,2.6429,2.6455,2.6442,2.645,2.6455,2.6456,2.6459,2.6445,2.6469,2.6508,2.6513,2.646,2.646,2.6459,0,2.6321,2.6345,2.6366,2.6373,2.6387,2.6397,2.6403,2.6414,2.6423,2.6436,2.6442,2.6457,2.6465,2.6477,2.648,2.647,2.6506,2.6493,2.6509,2.6509,2.6517,2.6517,2.6559,2.6521,2.6521,2.6521,2.6521,0,2.6353,2.6371,2.6377,2.639,2.6411,2.6413,2.6433,2.6439,2.6449,2.6463,2.6461,2.6474,2.6477,2.6492,2.6494,2.6515,2.6519,2.6522,2.6523,2.6523,2.6523,2.6529,2.6528,2.6522,2.6522,2.6522,2.6521,0,2.6382,2.6386,2.6409,2.642,2.6424,2.6439,2.6449,2.6461,2.6466,2.6484,2.6488,2.6495,2.6512,2.6516,2.6536,2.6537,2.6563,2.6561,2.6559,2.656,2.6575,2.6574,2.6623,2.663,2.6587,2.6588,2.6588,0,2.6402,2.6417,2.643,2.6439,2.6446,2.6461,2.6471,2.6473,2.6483,2.6498,2.6509,2.6525,2.6539,2.6566,2.6572,2.6588,2.6587,2.6603,2.6589,2.6589,2.6588,2.6588,2.659,2.6606,2.6607,2.6607,2.6607,0,2.6439,2.644,2.6454,2.6469,2.6481,2.6493,2.6504,2.6512,2.6516,2.6528,2.6545,2.6555,2.6576,2.6592,2.6608,2.6614,2.6612,2.6611,2.6616,2.6617,2.6616,2.6618,2.6568,2.6611,2.661,2.661,2.661,2.661,2.6465,2.6478,2.6489,2.6505,2.6514,2.6525,2.6538,2.6543,2.6558,2.6575,2.6575,2.6594,2.6605,2.6626,2.6633,2.6648,2.6643,2.6649,2.6651,2.6653,2.6655,2.6612,2.6651,2.6651,2.665,2.665,2.665,0,2.6503,2.651,2.6524,2.654,2.6553,2.6549,2.6561,2.6572,2.6589,2.66,2.6613,2.6633,2.6649,2.6657,2.6673,2.6683,2.6683,2.6687,2.6687,2.6689,2.6658,2.6653,2.6688,2.6688,2.6688,2.6688,2.6688,2.6688,2.6524,2.6546,2.6548,2.6575,2.6581,2.66,2.6608,2.6618,2.6626,2.6649,2.6662,2.6667,2.6677,2.6693,2.6708,2.671,2.6717,2.6722,2.6724,2.6695,2.6691,2.6687,2.6683,2.6723,2.6723,2.6754,2.6754,2.6754]},{"header":{"parameterUnit":"m.s-1","parameterCategory":1,"la1":30.2991,"la2":30.254,"lo1":-89.0895,"lo2":-89.0444,"dy":0.0017,"dx":0.0017,"nx":28,"ny":28,"refTime":"2023-07-19T03:00:00:Z","depth":0,"parameterNumber":3,"parameterNumberName":"V-component_of_WINDS"},"data":[0,0,0,0,0,0,0,0,0,0,0,0,0,0,0,0,0,0,0,0,0,0,0,0,0,0,0,0,0,0,0,0,0,0,0,0,0,0,0,0,0,0,0,0,0,0,0,0,0,0,0,0,0,0,0,0,0,0,-0.2091,-0.2091,0,-0.2096,-0.2096,-0.2096,-0.2089,-0.2089,-0.2089,-0.2089,-0.2094,-0.2094,-0.2095,0,0,0,0,0,0,0,0,0,0,0,0,0,-0.2076,-0.2076,-0.2091,-0.2091,-0.2091,-0.2096,-0.2096,-0.2096,-0.2089,-0.2089,-0.2089,-0.2089,-0.2094,-0.2094,-0.2095,0,0,0,0,0,0,0,0,0,0,0,0,0,-0.2082,-0.2076,-0.2091,-0.2088,-0.2088,-0.2096,-0.2096,-0.2096,-0.2089,-0.2089,-0.2089,-0.2088,-0.2094,-0.2094,-0.2095,-0.2105,0,0,-0.2096,-0.2097,0,0,0,0,0,0,0,0,-0.2081,-0.2082,-0.2088,-0.2088,-0.2088,-0.2091,-0.2092,-0.2099,-0.2089,-0.2089,-0.2089,-0.2088,-0.2093,-0.2094,-0.2096,-0.2105,-0.2106,-0.2096,-0.2097,-0.2097,-0.2097,0,0,0,0,0,0,0,-0.2081,-0.2082,-0.2093,-0.2088,-0.2088,-0.2087,-0.2087,-0.2094,-0.2093,-0.2089,-0.2088,-0.2089,-0.2093,-0.2095,-0.2096,-0.2106,-0.2096,-0.2097,-0.2097,-0.2097,-0.2125,-0.2125,0,0,0,0,0,0,-0.2081,-0.2082,-0.2092,-0.2093,-0.2084,-0.2087,-0.2088,-0.2091,-0.2093,-0.2093,-0.2089,-0.2089,-0.2094,-0.2095,-0.2096,-0.2109,-0.2097,-0.2098,-0.2098,-0.2124,-0.2125,-0.2125,0,0,0,0,0,0,-0.2081,-0.2082,-0.2092,-0.2087,-0.2088,-0.2088,-0.2091,-0.2091,-0.2093,-0.2093,-0.2093,-0.2091,-0.2094,-0.2095,-0.2103,-0.2109,-0.2098,-0.2098,-0.2124,-0.2125,-0.2125,-0.2134,0,0,0,0,0,0,-0.208,-0.2082,-0.2086,-0.2087,-0.2089,-0.2099,-0.2092,-0.2091,-0.2094,-0.2093,-0.2095,-0.2095,-0.2094,-0.2102,-0.2104,-0.2109,-0.2099,-0.2123,-0.2124,-0.2125,-0.2133,-0.2135,-0.2136,0,0,0,0,0,-0.208,-0.2088,-0.2086,-0.2087,-0.2093,-0.2099,-0.21,-0.2098,-0.2094,-0.2098,-0.2099,-0.2095,-0.2108,-0.2103,-0.2105,-0.211,-0.2123,-0.2124,-0.2125,-0.2132,-0.2134,-0.2136,0,0,0,0,0,0,-0.2087,-0.2088,-0.2086,-0.2094,-0.2097,-0.2098,-0.2103,-0.21,-0.2104,-0.2103,-0.2101,-0.2102,-0.211,-0.2111,-0.2106,-0.2121,-0.2115,-0.2116,-0.212,-0.2122,-0.2123,-0.2123,-0.2099,0,0,0,0,0,-0.2089,-0.2094,-0.2095,-0.2102,-0.2104,-0.2103,-0.2106,-0.2104,-0.2107,-0.2108,-0.2109,-0.2111,-0.2116,-0.2119,-0.2123,-0.2133,-0.2134,-0.2138,-0.214,-0.2141,-0.2142,-0.2148,-0.215,-0.2128,-0.2128,-0.2128,0,0,-0.2094,-0.2096,-0.2099,-0.2104,-0.2105,-0.2111,-0.2104,-0.211,-0.2114,-0.2109,-0.2116,-0.2117,-0.212,-0.2129,-0.2133,-0.213,-0.2148,-0.2142,-0.2143,-0.2143,-0.2149,-0.2151,-0.2153,-0.2129,-0.2129,-0.2129,0,0,-0.2107,-0.2108,-0.2115,-0.2117,-0.2119,-0.2119,-0.2121,-0.2123,-0.2123,-0.2131,-0.2127,-0.2132,-0.214,-0.2142,-0.2144,-0.2158,-0.2155,-0.216,-0.2168,-0.2174,-0.2175,-0.2177,-0.2182,-0.2184,-0.2161,-0.2161,-0.2161,0,-0.2113,-0.2121,-0.2119,-0.2125,-0.2127,-0.2123,-0.213,-0.2132,-0.2136,-0.2138,-0.2135,-0.2145,-0.2146,-0.2156,-0.216,-0.2161,-0.2164,-0.2159,-0.2175,-0.2177,-0.2178,-0.2183,-0.2185,-0.2161,-0.2161,-0.2161,-0.2161,0,-0.2128,-0.2134,-0.2139,-0.2143,-0.2146,-0.2153,-0.2152,-0.2156,-0.2154,-0.2154,-0.2162,-0.2164,-0.2169,-0.2171,-0.2169,-0.2181,-0.2179,-0.2175,-0.2169,-0.2181,-0.2186,-0.2187,-0.2162,-0.2162,-0.2162,-0.2162,0,0,-0.2145,-0.2148,-0.215,-0.2152,-0.2155,-0.216,-0.2166,-0.2171,-0.2174,-0.2177,-0.2183,-0.219,-0.2187,-0.2189,-0.2188,-0.2193,-0.2205,-0.2189,-0.2189,-0.2192,-0.2218,-0.2221,-0.2223,-0.2203,-0.2203,-0.2203,-0.2218,0,-0.2158,-0.2169,-0.2168,-0.2179,-0.2184,-0.218,-0.2186,-0.2189,-0.2189,-0.2194,-0.2195,-0.22,-0.2195,-0.2197,-0.2201,-0.2202,-0.221,-0.2201,-0.2209,-0.2209,-0.2208,-0.2226,-0.2229,-0.2243,-0.222,-0.222,-0.222,0,-0.2174,-0.2178,-0.2189,-0.2192,-0.2194,-0.22,-0.2204,-0.2208,-0.2212,-0.2212,-0.2215,-0.2213,-0.222,-0.2213,-0.2223,-0.2217,-0.222,-0.2221,-0.2222,-0.2223,-0.2215,-0.2228,-0.2247,-0.2249,-0.2223,-0.2223,-0.2223,0,-0.2186,-0.2194,-0.2202,-0.2204,-0.2207,-0.2211,-0.2212,-0.2215,-0.2218,-0.2222,-0.2224,-0.2229,-0.2232,-0.2236,-0.2235,-0.2231,-0.2246,-0.2239,-0.2246,-0.2246,-0.225,-0.2249,-0.227,-0.2251,-0.2251,-0.2251,-0.2251,0,-0.22,-0.2207,-0.2207,-0.2212,-0.222,-0.2219,-0.2227,-0.2228,-0.2231,-0.2236,-0.2233,-0.2239,-0.2238,-0.2243,-0.2242,-0.2251,-0.2252,-0.2253,-0.2253,-0.2253,-0.2253,-0.2255,-0.2254,-0.2252,-0.2251,-0.2251,-0.2251,0,-0.2214,-0.2214,-0.2223,-0.2226,-0.2226,-0.2232,-0.2235,-0.224,-0.224,-0.2247,-0.2249,-0.2249,-0.2255,-0.2255,-0.2262,-0.2262,-0.2273,-0.2271,-0.2272,-0.2272,-0.2279,-0.2278,-0.2302,-0.2305,-0.2284,-0.2284,-0.2284,0,-0.2224,-0.2229,-0.2233,-0.2236,-0.2238,-0.2243,-0.2247,-0.2246,-0.2249,-0.2254,-0.2258,-0.2264,-0.2269,-0.2279,-0.228,-0.2286,-0.2285,-0.2292,-0.2285,-0.2286,-0.2285,-0.2285,-0.2286,-0.2294,-0.2294,-0.2294,-0.2294,0,-0.2241,-0.224,-0.2245,-0.225,-0.2255,-0.2258,-0.2262,-0.2265,-0.2265,-0.2269,-0.2275,-0.2279,-0.2286,-0.2292,-0.2297,-0.2299,-0.2297,-0.2297,-0.2299,-0.2299,-0.23,-0.23,-0.2276,-0.2296,-0.2296,-0.2296,-0.2296,-0.2296,-0.2253,-0.2258,-0.2261,-0.2267,-0.227,-0.2273,-0.2278,-0.2279,-0.2285,-0.229,-0.229,-0.2297,-0.23,-0.2307,-0.231,-0.2315,-0.2313,-0.2316,-0.2316,-0.2317,-0.2318,-0.2298,-0.2316,-0.2316,-0.2316,-0.2316,-0.2316,0,-0.227,-0.2272,-0.2277,-0.2283,-0.2287,-0.2285,-0.2289,-0.2293,-0.2299,-0.2303,-0.2307,-0.2315,-0.2321,-0.2323,-0.2329,-0.2333,-0.2332,-0.2335,-0.2334,-0.2335,-0.232,-0.2318,-0.2335,-0.2335,-0.2335,-0.2335,-0.2335,-0.2335,-0.2279,-0.2288,-0.2288,-0.2299,-0.23,-0.2308,-0.231,-0.2314,-0.2316,-0.2325,-0.233,-0.2331,-0.2334,-0.234,-0.2346,-0.2346,-0.2349,-0.2352,-0.2352,-0.2338,-0.2336,-0.2334,-0.2332,-0.2352,-0.2352,-0.2367,-0.2367,-0.2367]}]]